TimePST,TemperatureF,Dew PointF,Humidity,Sea Level PressureIn,VisibilityMPH,Wind Direction,Wind SpeedMPH,Gust SpeedMPH,PrecipitationIn,Events,Conditions,WindDirDegrees,DateUTC
12:54 AM,53.1,36.0,52,29.98,10.0,Calm,Calm,-,N/A,,Clear,0,2014-02-24 08:54:00
1:54 AM,52.0,37.0,57,29.98,10.0,SE,4.6,-,N/A,,Clear,130,2014-02-24 09:54:00
2:54 AM,50.0,36.0,59,29.96,10.0,Calm,Calm,-,N/A,,Clear,0,2014-02-24 10:54:00
3:54 AM,54.0,37.0,53,29.96,10.0,ESE,4.6,-,N/A,,Clear,120,2014-02-24 11:54:00
4:54 AM,53.1,37.0,55,29.96,10.0,ESE,4.6,-,N/A,,Clear,120,2014-02-24 12:54:00
5:54 AM,46.9,35.1,63,29.98,10.0,Calm,Calm,-,N/A,,Clear,0,2014-02-24 13:54:00
6:54 AM,48.9,36.0,61,30.00,8.0,Calm,Calm,-,N/A,,Clear,0,2014-02-24 14:54:00
7:54 AM,54.0,37.9,55,30.01,8.0,SE,5.8,-,N/A,,Clear,130,2014-02-24 15:54:00
8:54 AM,57.9,37.9,47,30.01,8.0,ESE,3.5,-,N/A,,Clear,120,2014-02-24 16:54:00
9:54 AM,63.0,37.9,40,30.00,8.0,SSE,4.6,-,N/A,,Clear,160,2014-02-24 17:54:00
10:54 AM,66.9,39.9,37,29.98,7.0,WSW,4.6,-,N/A,,Clear,250,2014-02-24 18:54:00
11:54 AM,70.0,39.0,32,29.96,8.0,Variable,3.5,-,N/A,,Clear,0,2014-02-24 19:54:00
12:54 PM,72.0,39.0,30,29.93,8.0,Variable,3.5,-,N/A,,Clear,0,2014-02-24 20:54:00
1:54 PM,75.0,37.9,26,29.89,7.0,Variable,4.6,-,N/A,,Clear,0,2014-02-24 21:54:00
2:54 PM,77.0,37.0,24,29.88,7.0,WNW,3.5,-,N/A,,Clear,300,2014-02-24 22:54:00
3:54 PM,78.1,37.0,23,29.87,8.0,NW,8.1,-,N/A,,Clear,320,2014-02-24 23:54:00
4:54 PM,75.9,37.0,24,29.87,8.0,NW,9.2,-,N/A,,Clear,320,2014-02-25 00:54:00
5:54 PM,72.0,37.0,28,29.88,10.0,WNW,6.9,-,N/A,,Clear,300,2014-02-25 01:54:00
6:54 PM,64.9,36.0,34,29.90,9.0,NNE,4.6,-,N/A,,Clear,30,2014-02-25 02:54:00
7:54 PM,64.9,37.0,36,29.92,10.0,NE,4.6,-,N/A,,Clear,40,2014-02-25 03:54:00
8:54 PM,63.0,39.0,41,29.93,8.0,East,5.8,-,N/A,,Clear,80,2014-02-25 04:54:00
9:54 PM,62.1,39.9,44,29.94,8.0,ESE,4.6,-,N/A,,Clear,110,2014-02-25 05:54:00
10:54 PM,57.9,37.0,46,29.94,8.0,Calm,Calm,-,N/A,,Clear,0,2014-02-25 06:54:00
11:54 PM,57.0,39.0,51,29.94,8.0,Calm,Calm,-,N/A,,Clear,0,2014-02-25 07:54:00